[[{"header":{"parameterUnit":"m.s-1","parameterCategory":1,"la1":30.2992,"la2":30.254,"lo1":-89.0895,"lo2":-89.0443,"dy":0.0025,"dx":0.0025,"nx":19,"ny":19,"refTime":"2026-04-29T03:00:00:Z","depth":0,"parameterNumber":2,"parameterNumberName":"U-component_of_WINDS"},"data":[0,0,0,-4.1093,-4.1092,-4.1031,-4.103,-4.1,-4.1001,0,0,0,0,0,0,0,0,0,0,0,-4.114,-4.1141,-4.1093,-4.1092,-4.1031,-4.103,-4.1,-4.1001,0,0,0,0,0,0,0,0,0,0,0,-4.114,-4.1141,-4.1142,-4.1092,-4.1031,-4.103,-4.1,-4.1029,0,0,0,0,0,0,0,0,0,0,-4.1081,-4.1153,-4.1141,-4.1142,-4.1092,-4.1031,-4.103,-4.103,-4.1028,-4.1049,0,-4.1076,0,-4.1038,-4.1002,-4.1002,0,0,0,-4.107,-4.1155,-4.1112,-4.1142,-4.1092,-4.1031,-4.1052,-4.1028,-4.1026,-4.1046,-4.1075,-4.1072,-4.1038,-4.1002,-4.1002,-4.1199,-4.1201,0,0,-4.1074,-4.1145,-4.1114,-4.1112,-4.1124,-4.1055,-4.1051,-4.1026,-4.1062,-4.1075,-4.1071,-4.1037,-4.1002,-4.1002,-4.1197,-4.12,0,0,0,-4.1098,-4.1149,-4.1105,-4.1115,-4.11,-4.1053,-4.1049,-4.1063,-4.1042,-4.107,-4.1037,-4.1002,-4.1002,-4.1195,-4.1198,-4.1366,0,0,0,-4.1099,-4.1163,-4.1108,-4.1151,-4.1101,-4.1081,-4.1088,-4.1044,-4.1039,-4.1037,-4.1002,-4.1002,-4.1193,-4.1197,-4.1357,-4.1435,0,0,0,-4.1134,-4.1166,-4.1167,-4.1155,-4.1131,-4.1079,-4.1057,-4.1041,-4.102,-4.1002,-4.1002,-4.1191,-4.1196,-4.1348,-4.142,-4.151,0,0,0,-4.1193,-4.1316,-4.1171,-4.1296,-4.1132,-4.1183,-4.1056,-4.109,-4.1094,-4.1002,-4.1193,-4.1198,-4.1346,-4.1412,-4.1501,-4.1601,-4.1648,0,0,-4.1388,-4.1342,-4.141,-4.1279,-4.1374,-4.1186,-4.1306,-4.1241,-4.1174,-4.1195,-4.1198,-4.136,-4.1419,-4.1508,-4.188,-4.1918,0,0,0,-4.1497,-4.1547,-4.1556,-4.1564,-4.1518,-4.1485,-4.1395,-4.1371,-4.1385,-4.1199,-4.1412,-4.1445,-4.1494,-4.1539,-4.1571,-4.161,-4.122,-4.122,-4.1219,-4.1879,-4.1786,-4.1893,-4.1793,-4.1802,-4.1708,-4.1707,-4.1658,-4.1561,-4.1613,-4.162,-4.1857,-4.1912,-4.1935,-4.1977,-4.1661,-4.1662,-4.1662,-4.1663,-4.216,-4.2218,-4.2086,-4.2143,-4.2044,-4.209,-4.2005,-4.1934,-4.1964,-4.1844,-4.1882,-4.1763,-4.198,-4.2012,-4.1675,-4.1673,-4.1671,-4.167,-4.1669,-4.2404,-4.2416,-4.2384,-4.2386,-4.2398,-4.2291,-4.2327,-4.2234,-4.2146,-4.2184,-4.2184,-4.2181,-4.2169,-4.219,-4.2191,-4.2191,-4.2192,-4.2193,-4.2193,-4.2671,-4.2629,-4.2671,-4.2633,-4.2626,-4.2605,-4.2511,-4.2502,-4.2469,-4.2398,-4.2398,-4.2299,-4.2017,-4.1951,-4.2206,-4.2203,-4.2202,-4.2201,-4.22,-4.2998,-4.2909,-4.2974,-4.2967,-4.2915,-4.2935,-4.2814,-4.2804,-4.2783,-4.2804,-4.2694,-4.25,-4.2447,-4.242,-4.2365,-4.2712,-4.2712,-4.2712,-4.2712,-4.3207,-4.3169,-4.3215,-4.3211,-4.3196,-4.3095,-4.3172,-4.3101,-4.3012,-4.2994,-4.2929,-4.2846,-4.2823,-4.2783,-4.2749,-4.2696,-4.312,-4.312,-4.312,-4.3405,-4.3362,-4.3446,-4.3358,-4.331,-4.3272,-4.3343,-4.3345,-4.3225,-4.3135,-4.2978,-4.2961,-4.2826,-4.2786,-4.2698,-4.2646,-4.2547,0,0]},{"header":{"parameterUnit":"m.s-1","parameterCategory":1,"la1":30.2992,"la2":30.254,"lo1":-89.0895,"lo2":-89.0443,"dy":0.0025,"dx":0.0025,"nx":19,"ny":19,"refTime":"2026-04-29T03:00:00:Z","depth":0,"parameterNumber":3,"parameterNumberName":"V-component_of_WINDS"},"data":[0,0,0,0.5232,0.5231,0.5173,0.5173,0.5095,0.5094,0,0,0,0,0,0,0,0,0,0,0,0.5249,0.5249,0.5232,0.5231,0.5173,0.5173,0.5095,0.5094,0,0,0,0,0,0,0,0,0,0,0,0.5249,0.5249,0.5248,0.5231,0.5173,0.5173,0.5095,0.514,0,0,0,0,0,0,0,0,0,0,0.5197,0.5212,0.5249,0.5248,0.523,0.5173,0.5173,0.5142,0.5137,0.5121,0,0.5108,0,0.51,0.5089,0.5089,0,0,0,0.523,0.5216,0.5202,0.5248,0.523,0.5173,0.5199,0.5139,0.5134,0.5114,0.5106,0.5104,0.5099,0.5089,0.5088,0.5001,0.5,0,0,0.5234,0.5238,0.5206,0.5198,0.5209,0.5201,0.5197,0.5136,0.5127,0.5106,0.5102,0.5098,0.5088,0.5088,0.5001,0.5001,0,0,0,0.5243,0.524,0.5227,0.5201,0.5191,0.5199,0.5195,0.513,0.5125,0.5101,0.5097,0.5088,0.5087,0.5001,0.5001,0.4986,0,0,0,0.5245,0.5246,0.5228,0.523,0.5192,0.516,0.519,0.5129,0.5122,0.5097,0.5088,0.5086,0.5002,0.5001,0.4987,0.4977,0,0,0,0.5253,0.5247,0.5238,0.523,0.5206,0.5161,0.5153,0.5128,0.512,0.5089,0.5086,0.5002,0.5001,0.4988,0.4979,0.4955,0,0,0,0.5262,0.5224,0.5238,0.5194,0.5206,0.5153,0.5153,0.5113,0.5085,0.5087,0.5002,0.5001,0.4989,0.498,0.4956,0.4934,0.4926,0,0,0.5216,0.5218,0.5193,0.5204,0.515,0.5162,0.5105,0.5074,0.5066,0.5023,0.502,0.4987,0.4979,0.4955,0.4882,0.4876,0,0,0,0.5179,0.516,0.5145,0.5121,0.5099,0.5078,0.5057,0.5046,0.501,0.5046,0.4973,0.4968,0.4953,0.4942,0.4937,0.4924,0.4997,0.4997,0.4997,0.5117,0.5113,0.507,0.5059,0.5035,0.5015,0.4995,0.4977,0.4976,0.496,0.4945,0.4902,0.489,0.4886,0.4872,0.4935,0.4935,0.4935,0.4935,0.5048,0.502,0.5026,0.4986,0.4981,0.4947,0.4928,0.493,0.4896,0.4912,0.4899,0.4914,0.4879,0.4867,0.4934,0.4934,0.4934,0.4935,0.4935,0.5004,0.499,0.4981,0.4947,0.4921,0.4912,0.4881,0.4877,0.4874,0.4861,0.4846,0.4846,0.4844,0.4855,0.4855,0.4855,0.4855,0.4855,0.4854,0.4962,0.4952,0.4927,0.4904,0.4889,0.4869,0.4852,0.4837,0.4818,0.4818,0.4818,0.4819,0.4878,0.4891,0.4852,0.4852,0.4853,0.4853,0.4853,0.4888,0.4906,0.4867,0.4853,0.4827,0.4802,0.4801,0.477,0.4757,0.4742,0.4748,0.4793,0.4793,0.4798,0.4809,0.475,0.475,0.475,0.475,0.485,0.4852,0.4814,0.4791,0.4769,0.4765,0.4721,0.4709,0.4698,0.469,0.4699,0.4714,0.4719,0.4717,0.4723,0.4733,0.4657,0.4657,0.4657,0.4804,0.4805,0.4768,0.4761,0.4742,0.4725,0.4684,0.4657,0.4648,0.4653,0.4683,0.4687,0.4712,0.472,0.4721,0.4731,0.4749,0,0]}]]